Startpagina
METAR-TAF:

METAR-TAF

Vliegvelden :

Steamboat Springs, Colorado, Verenigde Staten

breedte: 40-30-58N, lengte: 106-51-59W, hoogte: 2098 m

Actueel weer

Dit bericht is 18 minuten geleden gemaakt, om 05:15 UTC
Weinig wind
Temperatuur -1°C
Vochtigheid 93%
Druk 1011 hPa
Zicht: 16.1 km
Verspreide wolken op 2400 ft
Geheel bewolkt op 3300 ft

METAR: KSBS 090515Z AUTO 00000KT 10SM SCT024 OVC033 M01/M02 A2986 RMK AO1 T10131016

Tijdstip: 22:33 (05:33 UTC)


TAF: ontbreekt

Waarnemingen en weersverwachtingen van meer dan 4000 vliegvelden (METAR en TAF).

De beschikbare stations zijn de gele en rode punten op de kaart.

Ga met uw muis naar het station om de naam te zien.

Klik dan om waarnemingen en weersverwachtingen te zien.

kaart wijzigen: klik op de groene knoppen met een zwart kruis om in te zoomen, op de groene knop met een streepje om uit te zoomen of op de groene pijlen voor aangrenzende kaarten.


METAR-TAF: